This is the latest recevied weather packets stored in our database for station/object PU5BHV. If no packets are shown the sender has not sent any weather packets the latest 10 day(s).
| Time | Temp. | Humidity | Pressure | Rain* | Wind** | Luminosity | Snow |
|---|---|---|---|---|---|---|---|
| 1778185023 | 26.11° C | 86% | 1007 hPa | 0 mm | - | 16 W/m² | - |
| 1778184720 | 26.11° C | 86% | 1007.1 hPa | 0 mm | - | 23 W/m² | - |
| 1778184416 | 26.11° C | 86% | 1007 hPa | 0 mm | - | 26 W/m² | - |
| 1778184112 | 26.67° C | 85% | 1007.1 hPa | 0 mm | - | 32 W/m² | - |
| 1778183809 | 26.67° C | 85% | 1007.3 hPa | 0 mm | - | 32 W/m² | - |
| 1778183506 | 26.67° C | 84% | 1007.3 hPa | 0 mm | - | 36 W/m² | - |
| 1778183203 | 26.67° C | 83% | 1007.1 hPa | 0 mm | - | 53 W/m² | - |
| 1778182898 | 26.67° C | 83% | 1007.1 hPa | 0 mm | - | 46 W/m² | - |
| 1778182596 | 26.67° C | 83% | 1007.1 hPa | 0 mm | - | 42 W/m² | - |
| 1778182293 | 26.67° C | 83% | 1007.1 hPa | 0 mm | - | 45 W/m² | - |
| 1778181989 | 27.22° C | 82% | 1007.3 hPa | 0 mm | - | 55 W/m² | - |
| 1778181686 | 27.78° C | 80% | 1007 hPa | 0 mm | - | 55 W/m² | - |
| 1778181381 | 27.78° C | 80% | 1007.2 hPa | 0 mm | - | 53 W/m² | - |
| 1778181078 | 27.78° C | 79% | 1007.3 hPa | 0 mm | - | 94 W/m² | - |
| 1778180776 | 27.78° C | 79% | 1007.2 hPa | 0 mm | - | 76 W/m² | - |
| 1778180475 | 27.78° C | 80% | 1007.2 hPa | 0 mm | - | 66 W/m² | - |
| 1778180173 | 28.33° C | 78% | 1007.5 hPa | 0 mm | - | 182 W/m² | - |
| 1778179869 | 28.33° C | 78% | 1007.5 hPa | 0 mm | - | 75 W/m² | - |
| 1778179567 | 28.33° C | 76% | 1007.6 hPa | 0 mm | - | 216 W/m² | - |
| 1778179264 | 28.33° C | 78% | 1007.5 hPa | 0 mm | - | 188 W/m² | - |
| 1778178960 | 28.89° C | 76% | 1007.5 hPa | 0 mm | - | 177 W/m² | - |
| 1778178658 | 28.89° C | 74% | 1007.2 hPa | 0 mm | - | 152 W/m² | - |
| 1778178354 | 29.44° C | 74% | 1007.6 hPa | 0 mm | - | 108 W/m² | - |
| 1778178050 | 29.44° C | 72% | 1007.3 hPa | 0 mm | - | 217 W/m² | - |
| 1778177747 | 29.44° C | 72% | 1007.6 hPa | 0 mm | - | 180 W/m² | - |
* Rain latest hour (hover to see other rain measurements)
** Current wind speed in m/s (hover to see current wind gust speed)